This is the latest recevied weather packets stored in our database for station/object OK1ZDJ-13. If no packets are shown the sender has not sent any weather packets the latest 10 day(s).
| Time | Temp. | Humidity | Pressure | Rain* | Wind** | Luminosity | Snow |
|---|---|---|---|---|---|---|---|
| 1777640863 | 21.11° C | 27% | 1028 hPa | - | - | - | - |
| 1777640263 | 20.56° C | 29% | 1028.1 hPa | - | - | - | - |
| 1777639663 | 20.56° C | 28% | 1028.2 hPa | - | - | - | - |
| 1777639063 | 20.56° C | 27% | 1028.4 hPa | - | - | - | - |
| 1777638463 | 20.56° C | 29% | 1028.4 hPa | - | - | - | - |
| 1777637863 | 20° C | 29% | 1028.6 hPa | - | - | - | - |
| 1777637263 | 20° C | 29% | 1028.7 hPa | - | - | - | - |
| 1777636663 | 20° C | 32% | 1028.7 hPa | - | - | - | - |
| 1777636063 | 19.44° C | 30% | 1028.9 hPa | - | - | - | - |
| 1777635463 | 18.89° C | 31% | 1029 hPa | - | - | - | - |
| 1777634263 | 18.89° C | 33% | 1029.3 hPa | - | - | - | - |
| 1777633063 | 18.33° C | 33% | 1029.5 hPa | - | - | - | - |
| 1777632463 | 17.78° C | 33% | 1029.6 hPa | - | - | - | - |
| 1777631263 | 17.78° C | 33% | 1029.8 hPa | - | - | - | - |
| 1777630663 | 17.22° C | 33% | 1030 hPa | - | - | - | - |
| 1777630063 | 17.22° C | 34% | 1030 hPa | - | - | - | - |
| 1777629467 | 17.22° C | 34% | 1030.1 hPa | - | - | - | - |
| 1777628863 | 16.67° C | 36% | 1030.2 hPa | - | - | - | - |
| 1777628267 | 16.67° C | 38% | 1030.2 hPa | - | - | - | - |
| 1777627661 | 16.11° C | 39% | 1030.3 hPa | - | - | - | - |
| 1777627061 | 16.11° C | 39% | 1030.4 hPa | - | - | - | - |
| 1777626461 | 15.56° C | 38% | 1030.5 hPa | - | - | - | - |
| 1777625861 | 15.56° C | 41% | 1030.6 hPa | - | - | - | - |
| 1777625261 | 15° C | 41% | 1030.6 hPa | - | - | - | - |
| 1777624661 | 15° C | 42% | 1030.5 hPa | - | - | - | - |
* Rain since midnight (hover to see other rain measurements)
** Current wind speed in m/s (hover to see current wind gust speed)